Weather Roundup
Issued by NWS Chicago, IL

Home | Current Version | Previous Version | Graphics & Text | Print | Product List | Glossary On
Versions: 1 2 3 4 5 6 7 8 9 10 11 12 13 14 15 16 17 18 19 20 21 22 23 24 25 26 27 28 29 30 31 32 33 34 35 36 37 38 39 40 41 42 43 44 45 46 47 48 49 50
000
NZUS59 KLOT 022212
HRRLOT

CHICAGO AREA WEATHER ROUNDUP
NATIONAL WEATHER SERVICE CHICAGO/ROMEOVILLE IL
400 PM CST FRI DEC 02 2016

NOTE: "FAIR" INDICATES FEW OR NO CLOUDS BELOW 12,000 FEET WITH NO
SIGNIFICANT WEATHER AND/OR OBSTRUCTIONS TO VISIBILITY.

* THESE STATIONS ARE NOT UNDER NWS QUALITY CONTROL. THEY ALSO MAY NOT
  REPORT WEATHER SUCH AS PRECIPITATION OR FOG.

ILZ005-006-012>014-019>023-022300-
NORTHEAST ILLINOIS

CITY           SKY/WX    TMP DP  RH WIND       PRES   REMARKS
OHARE          CLOUDY    37  27  67 NW8       30.23R
MIDWAY         CLOUDY    40  27  59 W9        30.23R
AURORA         CLOUDY    38  30  73 NW9       30.25R
LANSING*       CLOUDY    38  33  81 NW8       30.23R
JOLIET*        CLOUDY    40  32  74 W3        30.24S
WAUKEGAN       CLOUDY    35  24  64 NW6       30.22R WCI  30
DUPAGE AIRPORT CLOUDY    37  27  67 NW9       30.23R
WHEELING       CLOUDY    37  25  61 NW8       30.24R
KANKAKEE*      CLOUDY    40  32  74 W9        30.25R
MORRIS*        CLOUDY    38  34  86 W5        30.24R
LEWIS AIRPORT* CLOUDY    38  33  85 NW9       30.24R
NORTHERLY ISL    N/A     39  27  62 NW7         N/A
$$

WIZ051-052-058>065-066-070>072-022300-
SOUTHEAST WISCONSIN

CITY           SKY/WX    TMP DP  RH WIND       PRES   REMARKS
MILWAUKEE      CLOUDY    35  22  58 W9        30.22R WCI  28
KENOSHA*       CLOUDY    35  24  64 NW8       30.23R WCI  29
RACINE*        CLOUDY    35  23  61 NW5       30.23S WCI  31
BURLINGTON     CLOUDY    33  24  70 CALM      30.23R
WAUKESHA       CLOUDY    32  23  69 W8        30.22R WCI  25
WEST BEND      CLOUDY    32  27  80 NW6       30.21S WCI  26
$$

INZ001>003-010>013-019-020-022300-
NORTHWEST INDIANA

CITY           SKY/WX    TMP DP  RH WIND       PRES   REMARKS
GARY*          CLOUDY    41  32  70 W9        30.23R
MICHIGAN CITY* NOT AVBL
RENSSELAER*    NOT AVBL
VALPARAISO     CLOUDY    39  31  72 W6        30.22R
$$

LMZ740>746-022300-
SOUTHERN LAKE MICHIGAN

STATION/POSITION TIME  SKY/WX   TEMP WIND        PRES    VSBY
                                AIR  DIR/SP/G
                 (UTC)          (F)  (DEG/KT/KT) (MB)    (MI)
HARRISON CRIB    2110            40  320/ 13/ 14   N/A
BURNHAM HARBOR   2130            39  300/  4/ 11   N/A
CALUMET HARBOR   2118            39  290/  7/ 10 1022.6
BURNS HARBOR     2140            40  320/ 12/ 14 1023.7R
MICHIGAN CITY    2110            38  320/ 18/ 20   N/A
$$

ABBREVIATIONS USED IN REMARKS
   TC - TEMPERATURE IN CELSIUS
  WCI - WIND CHILL INDEX
   HX - HEAT INDEX
  VSB - VISIBILITY
$$



USA.gov is the U.S. government's official web portal to all federal, state and local government web resources and services.